Wind_Speed
25 23 20 19 18 16 14 13 11 9 8 7 5 5 5 5 5 7 8 11 13 15 16 18 20 21 22 23 24 25 25 26 26 26 26 25 24 22 21 20 19 17 17 17
24 21 19 20 19 16 14 12 11 9 8 7 5 4 4 5 5 6 8 10 13 15 16 18 20 21 22 23 24 25 26 26 27 27 26 26 25 23 21 20 19 18 17 16
22 19 20 20 18 16 14 12 10 9 8 7 5 5 4 4 4 6 8 10 13 15 16 18 19 21 21 22 23 25 26 26 27 27 27 27 26 24 22 21 20 19 17 16
22 21 22 20 17 15 13 11 10 8 7 6 5 5 4 4 4 5 7 9 11 14 15 17 19 20 21 22 23 24 25 26 27 28 28 28 27 25 23 22 21 20 18 17
21 21 21 19 16 14 12 10 9 8 7 6 6 4 2 2 3 4 6 8 10 12 14 16 18 19 20 21 23 24 25 26 28 28 29 28 27 26 24 23 22 21 20 18
20 20 19 17 15 13 11 10 9 9 8 8 7 5 3 1 2 3 5 7 10 11 13 15 16 18 20 21 23 24 25 27 28 28 28 28 28 27 26 24 23 22 21 19
20 20 18 16 15 13 12 11 10 10 10 10 8 6 3 2 2 3 4 6 9 11 12 14 16 17 19 21 22 24 25 27 27 28 28 28 28 28 27 25 24 23 22 20
19 18 17 16 14 13 12 11 11 11 12 10 9 7 4 4 3 3 4 6 8 10 11 13 15 16 18 20 22 23 25 26 27 28 28 28 28 28 28 26 25 24 23 21
17 17 16 14 13 13 12 11 11 11 12 11 10 8 6 5 4 4 5 6 8 9 10 12 14 16 18 20 21 23 25 26 27 28 28 28 28 28 28 27 26 25 24 21
16 15 15 14 13 12 12 11 11 11 12 12 11 9 7 6 5 4 5 5 7 8 10 12 14 15 17 19 21 22 24 25 26 27 27 27 28 28 28 27 27 26 25 22
16 15 15 14 12 11 12 12 12 11 12 12 12 10 8 7 5 5 5 5 6 8 9 11 13 15 16 18 20 22 23 25 25 26 27 27 28 28 27 27 27 27 26 24
16 15 15 14 13 13 12 13 12 12 12 13 12 10 10 7 6 6 5 5 6 8 9 11 13 14 16 18 19 21 23 24 25 26 27 27 27 28 27 27 27 27 27 25
17 15 14 14 14 13 13 13 13 13 13 12 11 10 10 7 6 6 6 6 6 8 10 11 13 14 16 17 19 20 22 23 25 25 25 26 27 28 27 27 26 26 26 26
17 16 15 14 14 14 13 13 13 12 12 12 12 11 9 7 6 7 6 7 7 8 10 11 13 14 15 17 18 20 21 23 24 25 25 25 26 27 27 27 26 26 25 25
18 17 17 16 15 15 14 13 13 13 13 13 12 11 9 8 7 7 7 7 8 9 10 11 13 14 15 17 18 19 21 22 23 24 24 25 25 26 26 26 26 26 25 24
19 19 20 19 18 17 15 14 14 13 13 13 13 12 11 10 9 8 8 9 9 10 11 12 13 14 15 17 18 19 20 21 22 23 24 24 25 25 25 25 25 25 25 24
19 20 21 21 21 19 17 16 15 14 14 14 13 13 12 11 10 9 9 10 10 11 11 12 13 14 15 17 18 19 19 20 21 23 23 24 24 24 24 24 24 24 24 23
17 19 20 21 21 21 16 17 17 16 15 15 14 13 12 12 11 11 11 11 11 12 12 13 14 15 15 17 18 18 19 20 21 22 23 23 23 23 23 23 23 23 23 22
16 17 19 20 21 19 17 17 17 17 16 15 14 14 13 12 12 12 12 12 12 13 13 14 14 15 16 16 17 18 19 19 20 21 22 23 23 23 23 22 22 22 22 22
16 17 18 19 19 18 16 16 17 17 15 15 15 14 14 13 13 13 13 13 13 14 14 15 15 16 16 17 18 18 19 19 20 21 22 22 23 23 22 22 22 22 22 21
16 17 18 18 18 16 15 16 16 16 14 15 15 15 14 14 14 14 14 14 14 14 15 15 16 16 17 18 18 19 19 20 21 21 22 22 23 23 22 22 22 22 22 21
17 17 18 19 18 15 15 16 16 16 16 15 15 15 15 14 14 14 14 15 15 15 16 16 16 17 18 18 19 19 20 21 21 21 22 23 23 23 23 22 22 22 22 22
18 18 18 19 18 17 17 17 17 17 16 16 16 16 16 15 15 15 16 16 16 17 17 17 18 18 19 19 20 20 21 21 22 22 23 23 24 24 24 23 23 23 22 22
20 20 20 20 18 18 18 18 18 18 18 17 17 17 17 16 16 17 17 17 18 18 18 19 19 20 20 21 21 21 22 22 23 23 24 24 24 24 24 24 24 24 23 23
22 23 23 22 20 20 19 19 19 19 19 18 18 18 18 18 18 18 18 19 19 20 20 20 21 21 21 22 22 22 23 23 24 25 25 25 25 24 24 24 25 25 24 24
23 25 26 24 23 24 22 22 21 21 20 20 20 20 20 19 19 19 20 20 21 21 21 21 22 22 22 23 23 24 24 25 25 25 25 25 25 25 25 26 26 26 26 26
Wind_Direction
234 236 238 241 245 247 251 260 269 276 279 284 297 326 335 339 350 5 12 12 9 6 3 1 1 1 1 360 359 357 357 356 355 353 351 348 345 340 336 333 326 317 307 294
231 233 233 235 239 242 248 258 265 268 279 287 301 319 325 337 354 5 10 8 7 5 2 1 1 1 360 359 359 358 357 356 355 354 352 350 348 344 339 337 334 326 316 304
227 226 228 232 236 238 244 253 261 268 272 279 294 308 314 340 356 2 4 4 3 2 360 360 0 360 359 359 358 358 358 357 357 356 355 354 352 349 345 342 339 334 324 314
219 220 225 228 232 238 244 250 256 261 260 271 280 292 313 346 351 359 0 359 359 358 357 358 359 359 359 359 359 359 359 359 359 358 357 356 355 353 349 346 343 340 334 325
216 219 225 226 228 235 241 245 249 249 252 259 266 274 297 322 343 354 353 353 355 355 354 355 357 359 359 359 360 0 360 359 359 359 359 359 358 356 354 351 347 344 340 332
214 217 221 222 224 228 233 240 243 244 245 246 252 256 254 279 335 347 347 349 350 352 352 354 357 359 360 0 360 360 360 359 360 0 1 1 1 0 358 355 353 349 345 339
213 214 216 218 220 226 232 239 240 238 237 242 250 248 257 290 313 329 339 345 347 348 350 353 355 357 359 0 0 0 0 1 1 2 2 3 4 3 2 0 357 355 351 347
213 214 215 216 219 223 232 237 239 239 240 243 249 248 260 276 289 310 334 341 344 346 349 350 352 355 358 359 359 360 1 1 2 3 4 5 5 6 6 4 3 1 359 356
211 209 211 212 217 223 231 235 236 238 240 245 247 248 256 265 278 305 327 333 338 343 346 348 350 353 356 357 359 0 1 2 3 5 5 6 7 7 7 8 8 7 6 3
207 205 205 208 216 223 229 233 236 237 240 245 248 248 255 259 272 288 301 313 327 336 341 345 348 351 354 356 358 0 2 3 4 6 6 7 7 8 10 11 11 11 10 8
204 205 205 207 211 218 224 229 234 239 242 243 248 250 254 258 258 264 275 301 322 332 337 341 345 349 351 354 356 358 0 2 4 5 6 7 8 9 9 11 12 13 13 13
210 211 205 206 215 222 226 230 232 238 242 246 251 250 252 255 255 261 277 303 321 328 333 338 343 346 349 351 354 356 359 1 2 4 6 7 8 9 10 10 11 13 15 17
212 213 207 213 223 228 230 232 234 238 242 247 251 250 249 254 256 263 278 295 310 322 330 336 340 344 346 349 351 353 355 358 1 2 4 6 7 8 9 10 11 13 15 16
214 218 221 227 231 235 235 236 238 241 243 245 248 250 251 250 252 257 268 285 300 314 325 331 336 340 343 346 348 350 353 356 358 0 2 3 5 6 8 10 11 13 14 15
220 226 231 234 236 240 240 239 241 245 248 248 247 248 246 247 252 258 268 283 297 308 317 324 330 334 339 342 344 347 350 352 355 358 360 2 2 4 6 8 10 12 13 15
225 230 233 237 243 248 249 247 249 251 252 249 246 246 248 250 254 260 272 284 294 302 309 316 322 327 333 337 340 343 346 349 351 354 357 359 0 2 4 6 8 10 12 14
230 232 235 238 243 249 250 252 254 255 254 252 249 247 248 252 257 264 273 282 289 296 302 309 315 320 327 332 336 339 342 345 348 351 353 355 358 360 2 4 6 8 10 12
233 235 237 239 243 246 247 250 252 253 252 252 251 249 250 253 257 263 271 278 285 292 298 305 311 317 322 328 332 335 338 341 344 346 349 351 354 356 358 360 2 4 6 8
237 238 240 242 245 247 245 247 248 249 249 250 249 248 250 253 258 263 269 276 283 290 296 302 308 313 319 324 327 331 334 337 340 342 345 347 349 351 352 354 357 360 1 2
238 238 241 243 246 244 239 242 244 247 246 247 248 248 249 252 257 263 269 275 281 288 293 298 304 310 315 320 323 326 330 332 335 338 340 342 344 345 347 348 350 353 355 356
244 243 243 245 248 245 240 241 243 246 244 245 247 249 251 253 258 264 269 273 279 285 291 296 302 307 312 317 320 322 325 328 330 332 334 337 339 341 342 343 344 345 348 349
247 247 247 248 250 248 245 246 246 247 246 247 247 249 252 255 259 264 268 273 278 284 290 295 300 305 309 313 315 318 321 323 326 328 330 332 334 336 337 338 338 339 340 342
251 251 250 250 253 253 251 251 251 250 248 247 248 250 253 257 260 263 268 273 278 284 289 293 297 301 305 308 311 313 316 319 321 324 326 328 329 329 331 332 333 333 334 335
251 253 253 252 253 254 254 253 253 252 250 249 250 252 256 259 262 265 269 274 278 283 287 291 295 299 302 305 306 309 312 314 316 319 321 323 324 325 326 328 328 328 328 329
250 253 255 255 254 255 254 255 254 252 251 251 253 255 257 260 264 267 271 274 278 282 286 289 293 296 299 301 303 305 307 310 312 315 317 319 321 321 322 323 324 323 323 323
252 253 254 254 254 254 254 254 254 254 253 253 255 257 259 262 265 268 271 274 278 281 284 287 291 293 296 298 300 302 303 306 308 311 312 314 317 318 318 319 319 319 319 318
Height
5873 5877 5879 5881 5882 5883 5884 5884 5884 5885 5884 5884 5883 5882 5881 5880 5878 5877 5875 5873 5871 5869 5866 5862 5858 5854 5849 5845 5840 5835 5830 5824 5818 5813 5807 5801 5796 5791 5786 5782 5778 5775 5772 5770
5869 5873 5876 5876 5878 5880 5881 5881 5882 5882 5881 5881 5880 5880 5879 5878 5876 5875 5873 5872 5870 5867 5865 5861 5857 5853 5848 5844 5839 5834 5829 5823 5817 5811 5805 5799 5794 5788 5783 5779 5774 5771 5768 5765
5865 5870 5870 5872 5875 5877 5878 5878 5879 5879 5879 5878 5878 5878 5877 5876 5875 5873 5872 5870 5868 5866 5863 5860 5856 5852 5848 5844 5839 5834 5828 5822 5816 5810 5804 5797 5791 5786 5780 5776 5772 5768 5764 5761
5861 5864 5866 5869 5871 5873 5875 5876 5876 5876 5876 5876 5877 5876 5876 5875 5874 5872 5871 5869 5867 5865 5862 5859 5856 5852 5847 5843 5838 5833 5827 5821 5815 5809 5802 5796 5790 5784 5779 5774 5769 5764 5760 5757
5858 5861 5862 5865 5868 5870 5872 5873 5873 5874 5874 5874 5874 5875 5875 5873 5872 5871 5870 5868 5867 5864 5862 5859 5855 5851 5847 5843 5838 5833 5827 5821 5815 5808 5802 5795 5789 5783 5777 5772 5767 5762 5757 5753
5854 5857 5860 5863 5865 5867 5869 5870 5871 5871 5872 5873 5872 5873 5873 5871 5870 5870 5869 5867 5865 5863 5861 5858 5855 5851 5847 5842 5837 5832 5826 5820 5814 5808 5801 5795 5788 5782 5776 5770 5765 5759 5754 5750
5851 5854 5857 5860 5862 5865 5866 5868 5869 5869 5870 5870 5870 5870 5870 5869 5869 5868 5867 5866 5864 5862 5860 5857 5854 5851 5847 5842 5837 5832 5826 5820 5814 5808 5801 5795 5788 5781 5775 5769 5763 5758 5753 5748
5848 5852 5855 5857 5860 5862 5863 5865 5867 5868 5868 5868 5868 5867 5868 5867 5867 5866 5865 5864 5863 5861 5859 5857 5854 5850 5846 5842 5837 5832 5826 5820 5814 5808 5801 5795 5788 5782 5775 5769 5763 5757 5752 5746
5846 5850 5853 5855 5857 5859 5860 5862 5864 5865 5865 5865 5865 5866 5866 5865 5865 5864 5864 5863 5862 5860 5858 5856 5853 5849 5846 5841 5837 5831 5826 5820 5814 5808 5801 5795 5789 5782 5776 5769 5763 5757 5751 5746
5844 5848 5851 5853 5855 5856 5858 5859 5861 5862 5862 5862 5863 5863 5864 5863 5863 5863 5862 5862 5861 5859 5857 5855 5852 5849 5845 5841 5836 5831 5826 5820 5814 5808 5802 5796 5790 5783 5777 5770 5764 5758 5752 5746
5843 5846 5849 5851 5852 5854 5855 5857 5857 5858 5859 5860 5860 5863 5862 5862 5862 5862 5861 5861 5859 5858 5856 5853 5851 5848 5844 5840 5836 5831 5826 5821 5815 5809 5803 5797 5791 5784 5778 5772 5766 5760 5754 5747
5841 5843 5846 5848 5850 5851 5852 5853 5855 5856 5857 5857 5858 5862 5859 5860 5860 5860 5859 5858 5857 5856 5854 5852 5849 5846 5843 5839 5835 5831 5826 5821 5815 5809 5804 5798 5792 5786 5779 5773 5768 5762 5756 5750
5840 5842 5844 5846 5849 5850 5850 5851 5852 5853 5854 5854 5855 5859 5857 5857 5857 5857 5857 5856 5855 5854 5852 5850 5848 5845 5842 5838 5835 5830 5826 5821 5815 5810 5804 5799 5793 5787 5781 5775 5769 5763 5758 5752
5838 5840 5843 5845 5846 5847 5848 5848 5849 5850 5851 5852 5853 5854 5854 5855 5855 5855 5855 5854 5853 5852 5851 5849 5846 5844 5841 5837 5834 5830 5825 5820 5815 5810 5805 5799 5794 5788 5782 5777 5771 5765 5760 5755
5837 5839 5840 5842 5843 5844 5845 5846 5847 5847 5848 5849 5850 5851 5852 5852 5853 5853 5852 5852 5851 5850 5849 5847 5845 5842 5839 5836 5832 5829 5824 5820 5815 5810 5805 5800 5795 5789 5784 5778 5773 5767 5762 5757
5834 5836 5837 5839 5840 5841 5842 5844 5844 5845 5845 5846 5847 5848 5848 5849 5850 5850 5850 5849 5849 5848 5846 5845 5843 5840 5837 5834 5831 5827 5823 5819 5815 5810 5805 5800 5795 5790 5785 5779 5774 5769 5764 5759
5831 5832 5834 5835 5836 5837 5839 5841 5841 5841 5842 5843 5844 5845 5845 5846 5846 5847 5847 5846 5846 5845 5844 5842 5840 5838 5835 5832 5829 5825 5822 5818 5813 5809 5805 5800 5795 5790 5785 5780 5775 5771 5766 5761
5828 5829 5830 5832 5834 5834 5839 5837 5837 5838 5838 5839 5840 5841 5842 5843 5843 5843 5843 5843 5842 5842 5841 5839 5838 5835 5833 5830 5827 5824 5820 5816 5812 5808 5804 5799 5795 5790 5785 5781 5776 5772 5767 5763
5825 5826 5827 5828 5829 5830 5834 5834 5834 5834 5835 5836 5837 5838 5838 5839 5839 5840 5840 5839 5839 5838 5837 5836 5834 5832 5830 5827 5824 5821 5818 5814 5810 5806 5802 5798 5794 5789 5785 5781 5777 5772 5768 5764
5821 5822 5823 5824 5824 5826 5830 5830 5829 5831 5832 5832 5833 5833 5834 5835 5836 5836 5836 5836 5835 5834 5833 5832 5831 5829 5827 5824 5821 5818 5815 5812 5808 5804 5800 5796 5792 5788 5784 5780 5776 5772 5768 5764
5818 5818 5819 5820 5820 5822 5825 5825 5826 5828 5829 5828 5828 5829 5830 5831 5832 5832 5832 5831 5831 5830 5830 5828 5827 5825 5823 5820 5818 5815 5812 5809 5805 5802 5798 5794 5790 5786 5782 5779 5775 5771 5767 5763
5814 5814 5815 5815 5816 5820 5820 5820 5822 5823 5823 5823 5824 5825 5826 5826 5827 5827 5827 5827 5827 5826 5825 5824 5822 5821 5819 5816 5814 5811 5808 5805 5802 5799 5795 5792 5788 5784 5780 5776 5773 5769 5766 5762
5809 5810 5810 5812 5814 5814 5815 5815 5816 5817 5818 5819 5819 5820 5821 5822 5822 5823 5823 5822 5822 5821 5820 5819 5818 5816 5814 5812 5810 5807 5805 5802 5798 5795 5792 5788 5785 5781 5777 5774 5770 5767 5763 5760
5804 5804 5805 5806 5807 5808 5809 5810 5811 5811 5812 5813 5814 5815 5816 5817 5817 5817 5817 5817 5817 5816 5815 5814 5813 5811 5809 5807 5805 5803 5800 5797 5794 5791 5788 5784 5781 5777 5774 5770 5767 5763 5760 5757
5798 5798 5798 5800 5801 5802 5803 5804 5805 5805 5807 5808 5809 5810 5810 5811 5812 5812 5812 5811 5811 5810 5809 5808 5807 5806 5804 5802 5800 5798 5795 5792 5790 5787 5783 5780 5777 5773 5770 5767 5763 5760 5756 5753
5792 5792 5792 5793 5795 5795 5797 5797 5798 5799 5800 5801 5802 5803 5804 5805 5805 5806 5805 5805 5805 5804 5803 5802 5801 5800 5798 5796 5794 5792 5789 5787 5784 5782 5778 5775 5772 5769 5766 5762 5759 5755 5752 5748